Location: Rounton
(54.4000°N, 1.3500°W)
Time: 03:55:03
(UTC+00:00)

S-56A Canister/Altair - Pass Details

Date: 06 December 2021
Orbit: 633 x 2499 km, 38.9° (Epoch: 17 January)

Event Time Altitude Azimuth Distance (km) Brightness Sun altitude
Rises 00:05:02 0° 230° (SW) 5,207 - -58.0°
Reaches altitude 10° 00:09:43 10° 218° (SW) 3,859 - -58.0°
Maximum altitude 00:16:31 22° 172° (S) 2,481 - -57.9°
Drops below altitude 10° 00:21:43 10° 124° (SE) 2,852 - -57.7°
Sets 00:24:34 0° 109° (ESE) 3,566 - -57.7°
